User: anonymous   Login
Location: Unspecified
(0.0000°N, 0.0000°E)
Time: 10:44:27
(UTC+00:00)
Language:

SR - Orbit

View from above orbital plane
View from above orbital plane
View from above satellite
View from above satellite

Ground track
Ground track

The orbit data is extracted from the following two-line orbital elements,

1    46U 60007B   17087.90065068 +.00000097 +00000-0 +41969-4 0  9999
2    46 066.6919 344.9988 0218235 287.5504 070.1867 14.49012291968629
Epoch (UTC): 28 March 2017 21:36:56
Eccentricity: 0.0218235
inclination: 66.6919°
perigee height: 574 km
apogee height: 884 km
right ascension of ascending node: 344.9988°
argument of perigee: 287.5504°
revolutions per day: 14.49012291
mean anomaly at epoch: 70.1867°
orbit number at epoch: 96862

The dashed part of the orbit path shows where the satellite is in the earth's shadow,  

DLR